Bemidji, MN

2:23 AM CST on November 22, 2017 (GMT -0600)
Bemidji-Beltrami County

Weather History for KBJI - September, 2011

Change the Weather History Date:

Sunday, September 11, 2011

  Actual Average Record
Temperature  
Mean Temperature 66 °F -  
Max Temperature 80 °F 67 °F 87 °F (1976)
Min Temperature 53 °F 44 °F 28 °F (1955)
Cooling Degree Days 2    
Growing Degree Days 16 (Base 50)    
Moisture  
Dew Point 53 °F    
Average Humidity 64    
Maximum Humidity 94    
Minimum Humidity 34    
Precipitation  
Precipitation 0.00 in - - ()
Sea Level Pressure  
Sea Level Pressure 29.93 in    
Wind  
Wind Speed 4 mph (West)    
Max Wind Speed 9 mph    
Max Gust Speed -    
Visibility 10 miles    
Events      
Averages and records for this station are not official NWS values.
T = Trace of Precipitation, MM = Missing Value Source: NWS Daily Summary

Daily Weather History Graph

Daily Weather History Graph

Search for Another Location

Airport or City:

Trip Planner

Search our weather history database for the weather conditions in past years. The results will help you decide how hot, cold, wet, or windy it might be!

Date:

Astronomy

Sep. 11, 2011 Rise Set
Actual Time 6:51 AM CDT 7:40 PM CDT
Civil Twilight 6:20 AM CDT 8:11 PM CDT
Nautical Twilight 5:43 AM CDT 8:48 PM CDT
Astronomical Twilight 5:03 AM CDT 9:27 PM CDT
Moon 6:59 PM CDT (9/11) 6:12 AM CDT (9/11)
Length of Visible Light 13h 51m
Length of Day
12h 49m
Full, 100% of the Moon is Illuminated
Sep 11
Full
Sep 12
Full
Sep 20
Last Quarter
Sep 27
New
Oct 3
First Quarter

Hourly Weather History & Observations

Time (CDT) Temp. Heat Index Dew Point Humidity Pressure Visibility Wind Dir Wind Speed Gust Speed Precip Events Conditions
12:15 AM 60.8 °F - 55.4 °F 82% 29.98 in 10.0 mi SW 3.5 mph - N/A   Clear
12:35 AM 60.8 °F - 55.4 °F 82% 29.98 in 10.0 mi SW 3.5 mph - N/A   Clear
1:15 AM 60.8 °F - 53.6 °F 77% 29.97 in 10.0 mi SW 3.5 mph - N/A   Clear
1:35 AM 60.8 °F - 53.6 °F 77% 29.97 in 10.0 mi SW 3.5 mph - N/A   Clear
1:55 AM 59.0 °F - 53.6 °F 82% 29.97 in 10.0 mi Calm Calm - N/A   Clear
2:15 AM 59.0 °F - 53.6 °F 82% 29.96 in 10.0 mi SW 3.5 mph - N/A   Clear
2:35 AM 59.0 °F - 53.6 °F 82% 29.96 in 10.0 mi SW 4.6 mph - N/A   Clear
2:55 AM 59.0 °F - 53.6 °F 82% 29.95 in 10.0 mi SW 4.6 mph - N/A   Clear
3:15 AM 59.0 °F - 53.6 °F 82% 29.95 in 10.0 mi SW 3.5 mph - N/A   Clear
3:55 AM 59.0 °F - 53.6 °F 82% 29.95 in 10.0 mi SW 3.5 mph - N/A   Clear
4:15 AM 59.0 °F - 53.6 °F 82% 29.95 in 10.0 mi SW 3.5 mph - N/A   Clear
4:35 AM 59.0 °F - 53.6 °F 82% 29.94 in 10.0 mi SW 3.5 mph - N/A   Clear
5:15 AM 55.4 °F - 53.6 °F 94% 29.94 in 10.0 mi WSW 3.5 mph - N/A   Clear
5:55 AM 57.2 °F - 53.6 °F 88% 29.94 in 10.0 mi SW 3.5 mph - N/A   Clear
6:15 AM 53.6 °F - 51.8 °F 94% 29.94 in 10.0 mi WSW 4.6 mph - N/A   Clear
6:35 AM 55.4 °F - 53.6 °F 94% 29.94 in 10.0 mi Calm Calm - N/A   Clear
6:55 AM 55.4 °F - 53.6 °F 94% 29.94 in 10.0 mi SW 3.5 mph - N/A   Clear
7:15 AM 57.2 °F - 53.6 °F 88% 29.95 in 10.0 mi SW 3.5 mph - N/A   Clear
7:35 AM 57.2 °F - 53.6 °F 88% 29.95 in 10.0 mi WSW 5.8 mph - N/A   Clear
7:55 AM 59.0 °F - 55.4 °F 88% 29.94 in 10.0 mi SW 5.8 mph - N/A   Clear
8:15 AM 59.0 °F - 53.6 °F 82% 29.94 in 10.0 mi SW 5.8 mph - N/A   Clear
8:35 AM 60.8 °F - 53.6 °F 77% 29.95 in 10.0 mi WSW 4.6 mph - N/A   Clear
8:55 AM 62.6 °F - 53.6 °F 72% 29.95 in 10.0 mi WSW 4.6 mph - N/A   Clear
9:15 AM 64.4 °F - 53.6 °F 68% 29.94 in 10.0 mi WSW 5.8 mph - N/A   Clear
9:35 AM 66.2 °F - 53.6 °F 64% 29.94 in 7.0 mi WSW 5.8 mph - N/A   Clear
9:55 AM 68.0 °F - 55.4 °F 64% 29.94 in 10.0 mi WSW 6.9 mph - N/A   Clear
10:15 AM 69.8 °F - 53.6 °F 56% 29.94 in 10.0 mi West 5.8 mph - N/A   Clear
10:55 AM 73.4 °F - 53.6 °F 50% 29.94 in 10.0 mi West 8.1 mph - N/A   Clear
11:15 AM 75.2 °F - 53.6 °F 47% 29.95 in 10.0 mi WNW 9.2 mph - N/A   Clear
11:35 AM 77.0 °F - 53.6 °F 44% 29.95 in 10.0 mi NW 8.1 mph - N/A   Clear
11:55 AM 75.2 °F - 55.4 °F 50% 29.95 in 10.0 mi North 5.8 mph - N/A   Clear
12:15 PM 77.0 °F - 55.4 °F 47% 29.94 in 10.0 mi NNW 9.2 mph - N/A   Clear
12:35 PM 78.8 °F - 53.6 °F 42% 29.95 in 10.0 mi North 6.9 mph - N/A   Clear
12:55 PM 78.8 °F - 55.4 °F 44% 29.94 in 10.0 mi NNW 8.1 mph - N/A   Clear
1:15 PM 78.8 °F - 53.6 °F 42% 29.94 in 7.0 mi NNW 4.6 mph - N/A   Clear
1:35 PM 80.6 °F - 50.0 °F 34% 29.93 in 10.0 mi NW 6.9 mph - N/A   Clear
1:55 PM 80.6 °F - 50.0 °F 34% 29.93 in 7.0 mi WNW 8.1 mph - N/A   Clear
2:15 PM 80.6 °F - 50.0 °F 34% 29.93 in 7.0 mi North 6.9 mph - N/A   Clear
2:35 PM 80.6 °F - 50.0 °F 34% 29.93 in 10.0 mi North 6.9 mph - N/A   Clear
3:15 PM 80.6 °F - 51.8 °F 37% 29.92 in 7.0 mi North 6.9 mph - N/A   Clear
3:35 PM 80.6 °F - 51.8 °F 37% 29.92 in 10.0 mi NNW 6.9 mph - N/A   Clear
3:55 PM 80.6 °F - 51.8 °F 37% 29.92 in 10.0 mi Calm Calm - N/A   Clear
4:15 PM 80.6 °F - 51.8 °F 37% 29.91 in 7.0 mi NNW 4.6 mph - N/A   Clear
4:55 PM 80.6 °F - 51.8 °F 37% 29.91 in 10.0 mi North 4.6 mph - N/A   Clear
5:15 PM 80.6 °F 80.3 °F 53.6 °F 39% 29.91 in 10.0 mi NNW 5.8 mph - N/A   Clear
5:55 PM 78.8 °F - 51.8 °F 39% 29.90 in 7.0 mi NE 6.9 mph - N/A   Clear
6:15 PM 77.0 °F - 51.8 °F 41% 29.90 in 10.0 mi ENE 5.8 mph - N/A   Clear
6:35 PM 77.0 °F - 53.6 °F 44% 29.90 in 7.0 mi ENE 4.6 mph - N/A   Clear
6:55 PM 73.4 °F - 53.6 °F 50% 29.89 in 7.0 mi Calm Calm - N/A   Clear
7:15 PM 71.6 °F - 53.6 °F 53% 29.89 in 10.0 mi ESE 3.5 mph - N/A   Clear
7:35 PM 71.6 °F - 53.6 °F 53% 29.89 in 10.0 mi SSE 3.5 mph - N/A   Clear
7:55 PM 69.8 °F - 53.6 °F 56% 29.89 in 10.0 mi Calm Calm - N/A   Clear
8:15 PM 68.0 °F - 53.6 °F 60% 29.89 in 10.0 mi Calm Calm - N/A   Clear
8:55 PM 60.8 °F - 55.4 °F 82% 29.90 in 10.0 mi Calm Calm - N/A   Clear
9:15 PM 62.6 °F - 55.4 °F 77% 29.90 in 10.0 mi Calm Calm - N/A   Clear
9:35 PM 62.6 °F - 55.4 °F 77% 29.89 in 10.0 mi SE 3.5 mph - N/A   Clear
9:55 PM 60.8 °F - 55.4 °F 82% 29.89 in 10.0 mi Calm Calm - N/A   Clear
10:15 PM 60.8 °F - 55.4 °F 82% 29.89 in 10.0 mi East 4.6 mph - N/A   Clear
10:35 PM 60.8 °F - 55.4 °F 82% 29.89 in 10.0 mi Calm Calm - N/A   Clear
10:55 PM 60.8 °F - 57.2 °F 88% 29.89 in 10.0 mi Calm Calm - N/A   Clear
11:15 PM 60.8 °F - 57.2 °F 88% 29.88 in 10.0 mi Calm Calm - N/A   Clear
11:35 PM 59.0 °F - 55.4 °F 88% 29.87 in 10.0 mi Calm Calm - N/A   Clear
11:55 PM 59.0 °F - 57.2 °F 94% 29.87 in 10.0 mi Calm Calm - N/A   Clear